Date,TemperatureHighF,TemperatureAvgF,TemperatureLowF,DewpointHighF,DewpointAvgF,DewpointLowF,HumidityHigh,HumidityAvg,HumidityLow,PressureMaxIn,PressureMinIn,WindSpeedMaxMPH,WindSpeedAvgMPH,GustSpeedMaxMPH,PrecipitationSumIn
2013-10-1,93.0,76.3,58.0,39.7,35.2,29.3,40,24,14,29.98,29.88,11,3,14,0.00
2013-10-2,90.0,76.2,60.0,48.2,42.4,38.6,50,31,17,29.97,29.84,11,3,13,0.00
2013-10-3,92.0,76.5,60.0,54.6,44.5,33.0,59,35,16,29.89,29.74,16,4,18,0.00
2013-10-4,85.0,73.0,62.0,46.6,39.3,23.8,46,30,20,29.98,29.83,13,3,14,0.00
2013-10-5,83.0,70.8,60.0,26.2,21.3,14.8,21,16,9,30.09,29.98,23,5,25,0.00
2013-10-6,89.0,71.5,52.0,29.1,25.0,20.2,32,19,11,30.09,29.98,10,3,11,0.00
2013-10-7,94.0,74.9,55.0,38.6,28.9,20.5,28,19,13,30.00,29.89,17,3,17,0.00
2013-10-8,90.0,75.4,59.0,37.8,31.9,27.6,33,21,14,29.91,29.79,16,4,17,0.00
2013-10-9,89.0,77.4,69.0,48.9,39.3,30.3,45,26,16,29.80,29.69,25,10,31,0.00
2013-10-10,69.0,61.0,53.0,52.1,46.8,39.5,87,60,34,29.95,29.75,21,5,21,0.00
2013-10-11,77.0,61.5,48.0,44.1,40.1,35.1,73,48,27,29.97,29.88,13,3,13,0.00
2013-10-12,85.0,68.0,49.0,40.6,36.8,33.5,58,34,17,29.93,29.83,13,3,14,0.00
2013-10-13,87.0,70.2,56.0,46.7,39.3,34.6,49,34,16,29.96,29.86,21,4,25,0.00
2013-10-14,82.0,69.0,58.0,48.0,39.2,29.7,60,36,20,30.02,29.91,12,4,13,0.00
2013-10-15,81.0,67.1,53.0,42.2,32.9,28.5,44,29,18,29.94,29.85,14,3,15,0.00
2013-10-16,80.0,64.7,48.0,30.3,25.2,17.0,43,24,11,30.03,29.94,9,3,9,0.00
2013-10-17,81.0,63.8,47.0,30.0,25.4,21.0,42,25,13,30.03,29.88,11,3,11,0.00
2013-10-18,81.0,64.9,47.0,30.6,26.6,23.2,41,25,15,29.98,29.90,13,4,14,0.00
2013-10-19,85.0,67.1,49.0,26.5,21.9,18.3,31,19,10,30.02,29.91,14,3,14,0.00
2013-10-20,83.0,66.8,48.0,26.4,21.2,17.1,33,19,11,29.95,29.85,14,3,14,0.00
2013-10-21,84.0,67.5,48.0,28.1,22.2,18.5,35,19,11,29.98,29.90,13,3,15,0.00
2013-10-22,90.0,71.1,52.0,29.7,22.9,18.9,30,18,9,30.01,29.89,11,3,14,0.00
2013-10-23,92.0,73.6,56.0,35.2,28.6,22.8,32,20,11,29.93,29.84,15,3,17,0.00
2013-10-24,90.0,72.5,56.0,36.2,29.6,25.1,32,21,13,29.98,29.86,16,3,18,0.00
2013-10-25,85.0,69.7,54.0,34.9,30.6,25.7,35,24,16,30.04,29.97,15,3,16,0.00
2013-10-26,87.0,68.6,52.0,34.9,31.0,26.1,38,26,15,30.09,29.97,9,2,10,0.00
2013-10-27,89.0,71.9,55.0,37.6,31.4,27.6,40,24,13,29.98,29.79,15,3,16,0.00
2013-10-28,81.0,72.0,66.0,39.5,34.1,29.0,34,25,15,29.90,29.80,19,7,21,0.00
2013-10-29,81.0,68.7,53.0,41.4,36.3,32.7,54,32,18,29.91,29.81,31,8,34,0.00
2013-10-30,68.0,56.5,48.0,39.8,34.9,28.6,68,46,29,30.00,29.87,14,4,16,0.00
2013-10-31,74.0,57.1,41.0,31.1,26.9,21.8,58,34,16,30.07,29.96,13,3,13,0.00